Location: Almena Post Office
(39.8928°N, 99.7066°W)
Time: 09:03:05
(UTC+00:00)

Cosmos 2233 Rocket - Pass Details

Date: 27 February 2020
Orbit: 954 x 990 km, 82.9° (Epoch: 08 April)

Event Time Altitude Azimuth Distance (km) Brightness Sun altitude
Rises 12:03:06 0° 352° (N) 3,697 7.0 -14.7°
Reaches altitude 10° 12:05:37 10° 352° (N) 2,749 6.3 -14.2°
Maximum altitude 12:11:56 85° 264° (W) 997 4.0 -13.0°
Drops below altitude 10° 12:18:15 10° 177° (S) 2,741 6.4 -11.8°
Sets 12:20:45 0° 177° (S) 3,686 7.1 -11.3°
